| time (UTC) | temp C | wind direction | speed KPH | gust KPH | rain 1hr cm | rain 24hr cm | rain mn cm | humidity % | barometer mb |
| 20260508102541 | 22 | 0 | 0.0 | 0.0 | 0.00 | 0.00 | 0.00 | 90 | 1015.6 |
| 20260508102041 | 22 | 0 | 0.0 | 0.0 | 0.00 | 0.00 | 0.00 | 90 | 1015.4 |
| 20260508101555 | 22 | 0 | 0.0 | 0.0 | 0.00 | 0.00 | 0.00 | 90 | 1015.4 |
| 20260508101041 | 22 | 0 | 0.0 | 0.0 | 0.00 | 0.00 | 0.00 | 90 | 1015.4 |
| 20260508100541 | 22 | 0 | 0.0 | 0.0 | 0.00 | 0.00 | 0.00 | 90 | 1015.2 |
| 20260508100051 | 22 | 0 | 0.0 | 0.0 | 0.00 | 0.00 | 0.00 | 90 | 1015.3 |
| 20260508095543 | 23 | 0 | 0.0 | 0.0 | 0.00 | 0.00 | 0.00 | 90 | 1015.2 |
| 20260508095041 | 23 | 0 | 0.0 | 0.0 | 0.00 | 0.00 | 0.00 | 90 | 1015.1 |
| 20260508094555 | 23 | 0 | 0.0 | 0.0 | 0.00 | 0.00 | 0.00 | 90 | 1015.1 |
| 20260508094040 | 23 | 0 | 0.0 | 0.0 | 0.00 | 0.00 | 0.00 | 90 | 1015.1 |
| 20260508093543 | 23 | 0 | 0.0 | 0.0 | 0.00 | 0.00 | 0.00 | 90 | 1015.0 |
| 20260508093101 | 23 | 0 | 0.0 | 0.0 | 0.00 | 0.00 | 0.00 | 90 | 1015.0 |
| 20260508092541 | 23 | 0 | 0.0 | 0.0 | 0.00 | 0.00 | 0.00 | 90 | 1015.0 |
| 20260508092041 | 23 | 0 | 0.0 | 0.0 | 0.00 | 0.00 | 0.00 | 90 | 1015.1 |
| 20260508091556 | 23 | 0 | 0.0 | 0.0 | 0.00 | 0.00 | 0.00 | 90 | 1015.0 |
| 20260508091042 | 23 | 0 | 0.0 | 0.0 | 0.00 | 0.00 | 0.00 | 90 | 1015.0 |
| 20260508090539 | 23 | 0 | 0.0 | 0.0 | 0.00 | 0.00 | 0.00 | 90 | 1014.9 |
| 20260508090108 | 23 | 0 | 0.0 | 0.0 | 0.00 | 0.00 | 0.00 | 90 | 1014.9 |
| 20260508085541 | 23 | 0 | 0.0 | 0.0 | 0.00 | 0.00 | 0.00 | 90 | 1014.9 |
| 20260508085038 | 23 | 0 | 0.0 | 0.0 | 0.00 | 0.00 | 0.00 | 90 | 1014.9 |
| 20260508084553 | 23 | 0 | 0.0 | 0.0 | 0.00 | 0.00 | 0.00 | 90 | 1014.9 |
| 20260508084038 | 23 | 0 | 0.0 | 0.0 | 0.00 | 0.00 | 0.00 | 90 | 1014.9 |
| 20260508083545 | 23 | 0 | 0.0 | 0.0 | 0.00 | 0.00 | 0.00 | 90 | 1015.0 |
| 20260508083053 | 23 | 0 | 0.0 | 1.6 | 0.00 | 0.00 | 0.00 | 90 | 1015.0 |
| 20260508082540 | 23 | 0 | 0.0 | 1.6 | 0.00 | 0.00 | 0.00 | 90 | 1015.0 |
| 20260508082041 | 23 | 0 | 0.0 | 1.6 | 0.00 | 0.00 | 0.00 | 90 | 1015.1 |
| 20260508081548 | 23 | 0 | 0.0 | 0.0 | 0.00 | 0.00 | 0.00 | 90 | 1015.0 |
| 20260508081042 | 23 | 0 | 0.0 | 3.2 | 0.00 | 0.00 | 0.00 | 90 | 1015.0 |
| 20260508080541 | 23 | 0 | 0.0 | 3.2 | 0.00 | 0.00 | 0.00 | 90 | 1015.0 |
| 20260508080056 | 23 | 0 | 0.0 | 0.0 | 0.00 | 0.00 | 0.00 | 90 | 1015.0 |
| 20260508075541 | 23 | 0 | 0.0 | 0.0 | 0.00 | 0.00 | 0.00 | 90 | 1014.9 |
| 20260508075044 | 23 | 0 | 0.0 | 0.0 | 0.00 | 0.00 | 0.00 | 90 | 1015.0 |
| 20260508074550 | 24 | 0 | 0.0 | 0.0 | 0.00 | 0.00 | 0.00 | 90 | 1015.0 |
| 20260508074042 | 24 | 0 | 0.0 | 0.0 | 0.00 | 0.00 | 0.00 | 90 | 1015.0 |
| 20260508073541 | 23 | 0 | 0.0 | 0.0 | 0.00 | 0.00 | 0.00 | 90 | 1015.2 |
| 20260508073049 | 24 | 0 | 0.0 | 3.2 | 0.00 | 0.00 | 0.00 | 90 | 1015.1 |
| 20260508072543 | 23 | 0 | 0.0 | 3.2 | 0.00 | 0.00 | 0.00 | 90 | 1015.2 |
| 20260508072043 | 23 | 0 | 0.0 | 4.8 | 0.00 | 0.00 | 0.00 | 90 | 1015.1 |
| 20260508071556 | 23 | 0 | 0.0 | 4.8 | 0.00 | 0.00 | 0.00 | 90 | 1015.1 |
| 20260508071040 | 23 | 0 | 0.0 | 3.2 | 0.00 | 0.00 | 0.00 | 90 | 1015.1 |
| 20260508070544 | 23 | 0 | 0.0 | 3.2 | 0.00 | 0.00 | 0.00 | 90 | 1015.1 |
| 20260508070056 | 23 | 0 | 0.0 | 1.6 | 0.00 | 0.00 | 0.00 | 90 | 1015.2 |
| 20260508065540 | 23 | 0 | 0.0 | 3.2 | 0.00 | 0.00 | 0.00 | 90 | 1015.2 |
| 20260508065042 | 23 | 0 | 0.0 | 3.2 | 0.00 | 0.00 | 0.00 | 90 | 1015.2 |
| 20260508064557 | 23 | 0 | 0.0 | 3.2 | 0.00 | 0.00 | 0.00 | 90 | 1015.2 |
| 20260508064043 | 23 | 0 | 0.0 | 3.2 | 0.00 | 0.00 | 0.00 | 90 | 1015.3 |
| 20260508063541 | 23 | 0 | 0.0 | 3.2 | 0.00 | 0.00 | 0.00 | 89 | 1015.3 |
| 20260508063054 | 23 | 0 | 0.0 | 1.6 | 0.00 | 0.00 | 0.00 | 89 | 1015.4 |
| 20260508062543 | 23 | 0 | 0.0 | 1.6 | 0.00 | 0.00 | 0.00 | 89 | 1015.4 |
| 20260508062043 | 23 | 0 | 0.0 | 1.6 | 0.00 | 0.00 | 0.00 | 89 | 1015.3 |
| 20260508061605 | 23 | 0 | 0.0 | 0.0 | 0.00 | 0.00 | 0.00 | 89 | 1015.4 |
| 20260508061040 | 23 | 0 | 0.0 | 0.0 | 0.00 | 0.00 | 0.00 | 88 | 1015.3 |
| 20260508060541 | 23 | 0 | 0.0 | 0.0 | 0.00 | 0.00 | 0.00 | 88 | 1015.3 |
| 20260508060056 | 23 | 0 | 0.0 | 0.0 | 0.00 | 0.00 | 0.00 | 89 | 1015.4 |
| 20260508055545 | 23 | 0 | 0.0 | 0.0 | 0.00 | 0.00 | 0.00 | 89 | 1015.4 |
| 20260508055044 | 23 | 0 | 0.0 | 0.0 | 0.00 | 0.00 | 0.00 | 89 | 1015.4 |
| 20260508054623 | 23 | 0 | 0.0 | 0.0 | 0.00 | 0.00 | 0.00 | 89 | 1015.4 |
| 20260508054043 | 23 | 0 | 0.0 | 1.6 | 0.00 | 0.00 | 0.00 | 88 | 1015.5 |
| 20260508053543 | 23 | 0 | 0.0 | 1.6 | 0.00 | 0.00 | 0.00 | 89 | 1015.6 |
| 20260508053053 | 23 | 0 | 0.0 | 1.6 | 0.00 | 0.00 | 0.00 | 89 | 1015.7 |
| 20260508052541 | 23 | 0 | 0.0 | 1.6 | 0.00 | 0.00 | 0.00 | 89 | 1015.7 |
| 20260508052043 | 23 | 0 | 0.0 | 1.6 | 0.00 | 0.00 | 0.00 | 88 | 1015.8 |
| 20260508051552 | 24 | 0 | 0.0 | 1.6 | 0.00 | 0.00 | 0.00 | 89 | 1015.8 |
| 20260508051043 | 24 | 0 | 0.0 | 0.0 | 0.00 | 0.00 | 0.00 | 88 | 1015.8 |
| 20260508050541 | 24 | 0 | 0.0 | 0.0 | 0.00 | 0.00 | 0.00 | 89 | 1015.8 |
| 20260508050054 | 24 | 0 | 0.0 | 1.6 | 0.00 | 0.00 | 0.00 | 89 | 1016.0 |
| 20260508045543 | 24 | 0 | 0.0 | 1.6 | 0.00 | 0.00 | 0.00 | 88 | 1015.9 |
| 20260508045043 | 24 | 0 | 0.0 | 0.0 | 0.00 | 0.00 | 0.00 | 88 | 1015.9 |
| 20260508044558 | 24 | 0 | 0.0 | 1.6 | 0.00 | 0.00 | 0.00 | 88 | 1016.0 |
| 20260508044042 | 24 | 0 | 0.0 | 1.6 | 0.00 | 0.00 | 0.00 | 88 | 1015.9 |
| 20260508043540 | 24 | 0 | 0.0 | 1.6 | 0.00 | 0.00 | 0.00 | 88 | 1016.0 |
| 20260508043048 | 25 | 0 | 0.0 | 1.6 | 0.00 | 0.00 | 0.00 | 88 | 1015.9 |
| 20260508042541 | 25 | 0 | 0.0 | 1.6 | 0.00 | 0.00 | 0.00 | 88 | 1016.0 |
| 20260508042040 | 25 | 0 | 0.0 | 1.6 | 0.00 | 0.00 | 0.00 | 88 | 1016.1 |
| 20260508041556 | 25 | 0 | 0.0 | 1.6 | 0.00 | 0.00 | 0.00 | 88 | 1016.1 |
| 20260508041040 | 25 | 0 | 0.0 | 1.6 | 0.00 | 0.00 | 0.00 | 88 | 1016.1 |
| 20260508040541 | 25 | 0 | 0.0 | 4.8 | 0.00 | 0.00 | 0.00 | 88 | 1016.1 |
| 20260508040058 | 25 | 0 | 0.0 | 4.8 | 0.00 | 0.00 | 0.00 | 88 | 1016.2 |
| 20260508035541 | 25 | 0 | 0.0 | 4.8 | 0.00 | 0.00 | 0.00 | 88 | 1016.1 |
| 20260508035041 | 25 | 0 | 0.0 | 4.8 | 0.00 | 0.00 | 0.00 | 88 | 1016.2 |
| 20260508034601 | 25 | 0 | 0.0 | 4.8 | 0.00 | 0.00 | 0.00 | 88 | 1016.3 |
| 20260508034039 | 25 | 0 | 0.0 | 4.8 | 0.00 | 0.00 | 0.00 | 88 | 1016.1 |
| 20260508033541 | 25 | 0 | 0.0 | 3.2 | 0.00 | 0.00 | 0.00 | 88 | 1016.1 |
| 20260508033049 | 25 | 319 | 0.0 | 3.2 | 0.00 | 0.00 | 0.00 | 87 | 1016.1 |
| 20260508032543 | 25 | 0 | 0.0 | 3.2 | 0.00 | 0.00 | 0.00 | 87 | 1016.0 |
| 20260508032042 | 25 | 0 | 0.0 | 3.2 | 0.00 | 0.00 | 0.00 | 87 | 1016.1 |
| 20260508031558 | 25 | 0 | 0.0 | 3.2 | 0.00 | 0.00 | 0.00 | 87 | 1016.1 |
| 20260508031037 | 25 | 220 | 0.0 | 4.8 | 0.00 | 0.00 | 0.00 | 87 | 1016.1 |
| 20260508030538 | 25 | 0 | 0.0 | 4.8 | 0.00 | 0.00 | 0.00 | 87 | 1016.1 |
| 20260508030106 | 25 | 326 | 0.0 | 6.4 | 0.00 | 0.00 | 0.00 | 87 | 1016.2 |
| 20260508025540 | 25 | 0 | 0.0 | 6.4 | 0.00 | 0.00 | 0.00 | 87 | 1016.1 |
| 20260508025044 | 25 | 0 | 0.0 | 4.8 | 0.00 | 0.00 | 0.00 | 87 | 1016.1 |
| 20260508024605 | 25 | 0 | 0.0 | 3.2 | 0.00 | 0.00 | 0.00 | 87 | 1016.1 |
| 20260508024040 | 25 | 0 | 0.0 | 4.8 | 0.00 | 0.00 | 0.00 | 87 | 1015.9 |
| 20260508023543 | 25 | 0 | 0.0 | 4.8 | 0.00 | 0.00 | 0.00 | 87 | 1016.0 |
| 20260508023049 | 25 | 0 | 0.0 | 4.8 | 0.00 | 0.00 | 0.00 | 87 | 1015.8 |
| 20260508022541 | 25 | 0 | 0.0 | 3.2 | 0.00 | 0.00 | 0.00 | 86 | 1015.8 |
| 20260508022038 | 25 | 0 | 0.0 | 3.2 | 0.00 | 0.00 | 0.00 | 86 | 1015.8 |
| 20260508021554 | 25 | 0 | 0.0 | 3.2 | 0.00 | 0.00 | 0.00 | 86 | 1015.9 |
| 20260508021040 | 25 | 0 | 0.0 | 0.0 | 0.00 | 0.00 | 0.00 | 86 | 1015.7 |
| 20260508020541 | 25 | 0 | 0.0 | 1.6 | 0.00 | 0.00 | 0.00 | 85 | 1015.7 |
| 20260508020050 | 25 | 0 | 0.0 | 4.8 | 0.00 | 0.00 | 0.00 | 85 | 1015.7 |
| 20260508015540 | 25 | 0 | 0.0 | 4.8 | 0.00 | 0.00 | 0.00 | 85 | 1015.7 |
| 20260508015040 | 25 | 0 | 0.0 | 1.6 | 0.00 | 0.00 | 0.00 | 85 | 1015.7 |
| 20260508014550 | 25 | 0 | 0.0 | 1.6 | 0.00 | 0.00 | 0.00 | 85 | 1015.8 |
| 20260508014038 | 25 | 0 | 0.0 | 1.6 | 0.00 | 0.00 | 0.00 | 85 | 1015.9 |
| 20260508013544 | 25 | 0 | 0.0 | 1.6 | 0.00 | 0.00 | 0.00 | 84 | 1015.8 |
| 20260508013058 | 26 | 0 | 0.0 | 1.6 | 0.00 | 0.00 | 0.00 | 84 | 1015.8 |
| 20260508012540 | 26 | 0 | 0.0 | 1.6 | 0.00 | 0.00 | 0.00 | 84 | 1015.7 |
| 20260508012044 | 26 | 0 | 0.0 | 1.6 | 0.00 | 0.00 | 0.00 | 84 | 1015.7 |
| 20260508011557 | 26 | 0 | 0.0 | 1.6 | 0.00 | 0.00 | 0.00 | 84 | 1015.7 |
| 20260508011040 | 26 | 0 | 0.0 | 1.6 | 0.00 | 0.00 | 0.00 | 83 | 1015.8 |
| 20260508010538 | 26 | 0 | 0.0 | 1.6 | 0.00 | 0.00 | 0.00 | 83 | 1015.8 |
| 20260508010046 | 26 | 0 | 0.0 | 0.0 | 0.00 | 0.00 | 0.00 | 83 | 1015.8 |
| 20260508005541 | 26 | 0 | 0.0 | 1.6 | 0.00 | 0.00 | 0.00 | 82 | 1015.7 |
| 20260508005044 | 26 | 0 | 0.0 | 3.2 | 0.00 | 0.00 | 0.00 | 82 | 1015.7 |
| 20260508004558 | 26 | 277 | 0.0 | 3.2 | 0.00 | 0.00 | 0.00 | 82 | 1015.7 |
| 20260508004043 | 26 | 0 | 0.0 | 1.6 | 0.00 | 0.00 | 0.00 | 82 | 1015.8 |
| 20260508003538 | 27 | 0 | 0.0 | 3.2 | 0.00 | 0.00 | 0.00 | 81 | 1015.7 |
| 20260508003103 | 27 | 0 | 0.0 | 3.2 | 0.00 | 0.00 | 0.00 | 81 | 1015.8 |
| 20260508002540 | 27 | 0 | 0.0 | 4.8 | 0.00 | 0.00 | 0.00 | 81 | 1015.8 |
| 20260508002038 | 27 | 0 | 0.0 | 4.8 | 0.00 | 0.00 | 0.00 | 81 | 1015.8 |
| 20260508001554 | 27 | 0 | 0.0 | 4.8 | 0.00 | 0.00 | 0.00 | 80 | 1015.8 |
| 20260508001041 | 27 | 280 | 0.0 | 6.4 | 0.00 | 0.00 | 0.00 | 79 | 1015.8 |
| 20260508000540 | 27 | 0 | 1.6 | 6.4 | 0.00 | 0.00 | 0.00 | 79 | 1015.8 |
| 20260508000052 | 27 | 288 | 1.6 | 6.4 | 0.00 | 0.00 | 0.00 | 79 | 1015.8 |
| 20260507235541 | 27 | 0 | 0.0 | 6.4 | 0.00 | 0.00 | 0.00 | 78 | 1015.8 |
| 20260507235041 | 28 | 258 | 1.6 | 6.4 | 0.00 | 0.00 | 0.00 | 78 | 1015.9 |
| 20260507234550 | 28 | 0 | 1.6 | 6.4 | 0.00 | 0.00 | 0.00 | 77 | 1015.8 |
| 20260507234040 | 28 | 250 | 0.0 | 8.0 | 0.00 | 0.00 | 0.00 | 76 | 1015.8 |
| 20260507233541 | 28 | 234 | 1.6 | 8.0 | 0.00 | 0.00 | 0.00 | 75 | 1015.8 |
| 20260507233052 | 28 | 291 | 1.6 | 9.7 | 0.00 | 0.00 | 0.00 | 74 | 1015.7 |
| 20260507232545 | 28 | 0 | 1.6 | 9.7 | 0.00 | 0.00 | 0.00 | 74 | 1015.6 |
| 20260507232040 | 28 | 276 | 1.6 | 11.3 | 0.00 | 0.00 | 0.00 | 73 | 1015.6 |
| 20260507231558 | 29 | 283 | 1.6 | 11.3 | 0.00 | 0.00 | 0.00 | 72 | 1015.6 |
| 20260507231038 | 29 | 257 | 1.6 | 14.5 | 0.00 | 0.00 | 0.00 | 70 | 1015.6 |
| 20260507230541 | 30 | 264 | 1.6 | 14.5 | 0.00 | 0.00 | 0.00 | 70 | 1015.5 |
| 20260507230057 | 30 | 300 | 4.8 | 14.5 | 0.00 | 0.00 | 0.00 | 69 | 1015.4 |
| 20260507225538 | 30 | 281 | 1.6 | 11.3 | 0.00 | 0.00 | 0.00 | 68 | 1015.4 |
| 20260507225038 | 30 | 240 | 3.2 | 14.5 | 0.00 | 0.00 | 0.00 | 68 | 1015.5 |
| 20260507224558 | 30 | 261 | 3.2 | 14.5 | 0.00 | 0.00 | 0.00 | 68 | 1015.4 |
| 20260507224038 | 31 | 239 | 6.4 | 14.5 | 0.00 | 0.00 | 0.00 | 65 | 1015.4 |
| 20260507223538 | 31 | 197 | 3.2 | 9.7 | 0.00 | 0.00 | 0.00 | 64 | 1015.4 |
| 20260507223049 | 31 | 249 | 1.6 | 12.9 | 0.00 | 0.00 | 0.00 | 65 | 1015.3 |
| 20260507222538 | 31 | 360 | 4.8 | 12.9 | 0.00 | 0.00 | 0.00 | 63 | 1015.3 |
| 20260507222040 | 31 | 254 | 4.8 | 11.3 | 0.00 | 0.00 | 0.00 | 60 | 1015.3 |
| 20260507221550 | 31 | 207 | 4.8 | 11.3 | 0.00 | 0.00 | 0.00 | 61 | 1015.3 |
| 20260507221041 | 31 | 207 | 3.2 | 12.9 | 0.00 | 0.00 | 0.00 | 63 | 1015.3 |
| 20260507220541 | 31 | 279 | 4.8 | 12.9 | 0.00 | 0.00 | 0.00 | 65 | 1015.4 |
| 20260507220053 | 31 | 265 | 3.2 | 11.3 | 0.00 | 0.00 | 0.00 | 64 | 1015.4 |
| 20260507215543 | 31 | 298 | 3.2 | 11.3 | 0.00 | 0.00 | 0.00 | 64 | 1015.4 |
| 20260507215041 | 31 | 256 | 3.2 | 16.1 | 0.00 | 0.00 | 0.00 | 63 | 1015.4 |
| 20260507214553 | 31 | 238 | 1.6 | 16.1 | 0.00 | 0.00 | 0.00 | 64 | 1015.3 |
| 20260507214041 | 31 | 30 | 4.8 | 17.7 | 0.00 | 0.00 | 0.00 | 62 | 1015.2 |
| 20260507213541 | 31 | 242 | 4.8 | 17.7 | 0.00 | 0.00 | 0.00 | 64 | 1015.3 |
| 20260507213056 | 31 | 262 | 4.8 | 17.7 | 0.00 | 0.00 | 0.00 | 61 | 1015.3 |
| 20260507212542 | 31 | 259 | 3.2 | 14.5 | 0.00 | 0.00 | 0.00 | 63 | 1015.4 |
| 20260507212040 | 31 | 282 | 6.4 | 14.5 | 0.00 | 0.00 | 0.00 | 64 | 1015.4 |
| 20260507211553 | 31 | 166 | 6.4 | 14.5 | 0.00 | 0.00 | 0.00 | 65 | 1015.4 |
| 20260507211039 | 31 | 292 | 4.8 | 16.1 | 0.00 | 0.00 | 0.00 | 67 | 1015.5 |
| 20260507210540 | 31 | 259 | 3.2 | 16.1 | 0.00 | 0.00 | 0.00 | 67 | 1015.4 |
| 20260507210119 | 32 | 325 | 4.8 | 14.5 | 0.00 | 0.00 | 0.00 | 64 | 1015.5 |
| 20260507205540 | 32 | 318 | 3.2 | 14.5 | 0.00 | 0.00 | 0.00 | 67 | 1015.5 |
| 20260507205046 | 32 | 332 | 4.8 | 14.5 | 0.00 | 0.00 | 0.00 | 64 | 1015.6 |
| 20260507204600 | 32 | 258 | 4.8 | 12.9 | 0.00 | 0.00 | 0.00 | 65 | 1015.5 |
| 20260507204040 | 32 | 205 | 4.8 | 16.1 | 0.00 | 0.00 | 0.00 | 65 | 1015.5 |
| 20260507203541 | 32 | 271 | 4.8 | 19.3 | 0.00 | 0.00 | 0.00 | 63 | 1015.6 |
| 20260507203058 | 32 | 286 | 4.8 | 19.3 | 0.00 | 0.00 | 0.00 | 61 | 1015.6 |
| 20260507202542 | 32 | 221 | 4.8 | 14.5 | 0.00 | 0.00 | 0.00 | 64 | 1015.5 |
| 20260507202039 | 32 | 264 | 6.4 | 14.5 | 0.00 | 0.00 | 0.00 | 61 | 1015.6 |
| 20260507201548 | 32 | 333 | 4.8 | 16.1 | 0.00 | 0.00 | 0.00 | 64 | 1015.5 |
| 20260507201042 | 32 | 182 | 3.2 | 16.1 | 0.00 | 0.00 | 0.00 | 61 | 1015.7 |
| 20260507200542 | 32 | 240 | 6.4 | 14.5 | 0.00 | 0.00 | 0.00 | 63 | 1015.7 |
| 20260507195546 | 32 | 32 | 4.8 | 16.1 | 0.00 | 0.00 | 0.00 | 64 | 1015.8 |
| 20260507195042 | 32 | 259 | 1.6 | 12.9 | 0.00 | 0.00 | 0.00 | 65 | 1016.0 |
| 20260507194549 | 32 | 252 | 3.2 | 12.9 | 0.00 | 0.00 | 0.00 | 65 | 1016.0 |
| 20260507194041 | 32 | 244 | 3.2 | 12.9 | 0.00 | 0.00 | 0.00 | 64 | 1015.9 |
| 20260507193541 | 32 | 237 | 3.2 | 12.9 | 0.00 | 0.00 | 0.00 | 65 | 1015.9 |
| 20260507193113 | 32 | 242 | 4.8 | 12.9 | 0.00 | 0.00 | 0.00 | 66 | 1016.1 |
| 20260507192542 | 31 | 317 | 3.2 | 16.1 | 0.00 | 0.00 | 0.00 | 66 | 1016.0 |
| 20260507192046 | 31 | 335 | 4.8 | 16.1 | 0.00 | 0.00 | 0.00 | 66 | 1016.1 |
| 20260507191557 | 31 | 234 | 3.2 | 16.1 | 0.00 | 0.00 | 0.00 | 68 | 1016.2 |
| 20260507191040 | 31 | 225 | 4.8 | 16.1 | 0.00 | 0.00 | 0.00 | 70 | 1016.2 |
| 20260507190542 | 32 | 194 | 4.8 | 16.1 | 0.00 | 0.00 | 0.00 | 70 | 1016.3 |
| 20260507190047 | 31 | 116 | 3.2 | 19.3 | 0.00 | 0.00 | 0.00 | 70 | 1016.4 |
| 20260507185543 | 31 | 267 | 3.2 | 19.3 | 0.00 | 0.00 | 0.00 | 63 | 1016.5 |
| 20260507185040 | 31 | 314 | 8.0 | 19.3 | 0.00 | 0.00 | 0.00 | 61 | 1016.5 |
| 20260507184554 | 31 | 294 | 6.4 | 16.1 | 0.00 | 0.00 | 0.00 | 62 | 1016.6 |
| 20260507184043 | 31 | 319 | 4.8 | 16.1 | 0.00 | 0.00 | 0.00 | 62 | 1016.7 |
| 20260507183540 | 31 | 285 | 3.2 | 14.5 | 0.00 | 0.00 | 0.00 | 65 | 1016.8 |
| 20260507183059 | 31 | 261 | 3.2 | 14.5 | 0.00 | 0.00 | 0.00 | 67 | 1016.8 |
| 20260507182541 | 31 | 277 | 3.2 | 12.9 | 0.00 | 0.00 | 0.00 | 65 | 1017.0 |
| 20260507182041 | 31 | 224 | 4.8 | 12.9 | 0.00 | 0.00 | 0.00 | 72 | 1017.0 |
| 20260507181554 | 31 | 279 | 3.2 | 11.3 | 0.00 | 0.00 | 0.00 | 73 | 1017.1 |
| 20260507181040 | 31 | 222 | 3.2 | 11.3 | 0.00 | 0.00 | 0.00 | 72 | 1017.1 |
| 20260507180541 | 31 | 35 | 3.2 | 11.3 | 0.00 | 0.00 | 0.00 | 72 | 1017.2 |
| 20260507180056 | 31 | 293 | 3.2 | 11.3 | 0.00 | 0.00 | 0.00 | 72 | 1017.3 |
| 20260507175540 | 31 | 148 | 4.8 | 11.3 | 0.00 | 0.00 | 0.00 | 72 | 1017.4 |
| 20260507175040 | 31 | 261 | 1.6 | 11.3 | 0.00 | 0.00 | 0.00 | 71 | 1017.5 |
| 20260507174554 | 31 | 227 | 3.2 | 9.7 | 0.00 | 0.00 | 0.00 | 72 | 1017.6 |
| 20260507174041 | 31 | 132 | 3.2 | 11.3 | 0.00 | 0.00 | 0.00 | 73 | 1017.4 |
| 20260507173545 | 30 | 195 | 3.2 | 11.3 | 0.00 | 0.00 | 0.00 | 72 | 1017.4 |
| 20260507173123 | 30 | 201 | 3.2 | 17.7 | 0.00 | 0.00 | 0.00 | 72 | 1017.4 |
| 20260507172543 | 30 | 216 | 3.2 | 17.7 | 0.00 | 0.00 | 0.00 | 71 | 1017.6 |
| 20260507172040 | 30 | 252 | 1.6 | 11.3 | 0.00 | 0.00 | 0.00 | 71 | 1017.6 |
| 20260507171551 | 30 | 182 | 4.8 | 16.1 | 0.00 | 0.00 | 0.00 | 70 | 1017.5 |
| 20260507171041 | 30 | 207 | 4.8 | 16.1 | 0.00 | 0.00 | 0.00 | 72 | 1017.6 |
| 20260507170541 | 30 | 196 | 3.2 | 14.5 | 0.00 | 0.00 | 0.00 | 70 | 1017.7 |
| 20260507170053 | 30 | 257 | 3.2 | 14.5 | 0.00 | 0.00 | 0.00 | 71 | 1017.7 |
| 20260507165540 | 30 | 288 | 4.8 | 16.1 | 0.00 | 0.00 | 0.00 | 72 | 1017.7 |
| 20260507165040 | 30 | 196 | 3.2 | 16.1 | 0.00 | 0.00 | 0.00 | 73 | 1017.7 |
| 20260507164604 | 30 | 195 | 4.8 | 12.9 | 0.00 | 0.00 | 0.00 | 72 | 1017.8 |
| 20260507164041 | 30 | 132 | 4.8 | 12.9 | 0.00 | 0.00 | 0.00 | 74 | 1017.7 |
| 20260507163541 | 30 | 155 | 4.8 | 12.9 | 0.00 | 0.00 | 0.00 | 76 | 1017.8 |
| 20260507163050 | 30 | 197 | 4.8 | 12.9 | 0.00 | 0.00 | 0.00 | 76 | 1017.7 |
| 20260507162540 | 30 | 157 | 4.8 | 12.9 | 0.00 | 0.00 | 0.00 | 75 | 1017.8 |
| 20260507162041 | 30 | 256 | 4.8 | 14.5 | 0.00 | 0.00 | 0.00 | 77 | 1017.7 |
| 20260507161605 | 30 | 182 | 4.8 | 14.5 | 0.00 | 0.00 | 0.00 | 76 | 1017.8 |
| 20260507161040 | 29 | 239 | 3.2 | 19.3 | 0.00 | 0.00 | 0.00 | 78 | 1017.9 |
| 20260507160540 | 29 | 178 | 6.4 | 19.3 | 0.00 | 0.00 | 0.00 | 77 | 1017.9 |
| 20260507160107 | 29 | 166 | 4.8 | 12.9 | 0.00 | 0.00 | 0.00 | 78 | 1017.8 |
| 20260507155539 | 29 | 250 | 4.8 | 12.9 | 0.00 | 0.00 | 0.00 | 77 | 1017.8 |
| 20260507155040 | 29 | 214 | 4.8 | 16.1 | 0.00 | 0.00 | 0.00 | 77 | 1018.0 |
| 20260507154550 | 30 | 190 | 4.8 | 19.3 | 0.00 | 0.00 | 0.00 | 76 | 1018.0 |
| 20260507154042 | 30 | 221 | 4.8 | 19.3 | 0.00 | 0.00 | 0.00 | 76 | 1018.0 |
| 20260507153542 | 30 | 185 | 1.6 | 16.1 | 0.00 | 0.00 | 0.00 | 78 | 1018.1 |
| 20260507153049 | 30 | 188 | 1.6 | 16.1 | 0.00 | 0.00 | 0.00 | 78 | 1018.0 |
| 20260507152540 | 29 | 201 | 4.8 | 16.1 | 0.00 | 0.00 | 0.00 | 78 | 1018.1 |
| 20260507152039 | 29 | 182 | 3.2 | 11.3 | 0.00 | 0.00 | 0.00 | 78 | 1018.1 |
| 20260507151545 | 29 | 182 | 4.8 | 14.5 | 0.00 | 0.00 | 0.00 | 78 | 1018.1 |
| 20260507151042 | 29 | 274 | 3.2 | 14.5 | 0.00 | 0.00 | 0.00 | 80 | 1018.1 |
| 20260507150550 | 28 | 163 | 3.2 | 11.3 | 0.00 | 0.00 | 0.00 | 80 | 1018.0 |
| 20260507150050 | 28 | 225 | 1.6 | 12.9 | 0.00 | 0.00 | 0.00 | 80 | 1018.1 |
| 20260507145542 | 28 | 187 | 6.4 | 12.9 | 0.00 | 0.00 | 0.00 | 80 | 1018.1 |
| 20260507145044 | 28 | 208 | 3.2 | 12.9 | 0.00 | 0.00 | 0.00 | 80 | 1018.0 |
| 20260507144558 | 28 | 133 | 3.2 | 12.9 | 0.00 | 0.00 | 0.00 | 80 | 1018.0 |
| 20260507144042 | 28 | 193 | 4.8 | 12.9 | 0.00 | 0.00 | 0.00 | 80 | 1018.1 |
| 20260507143541 | 28 | 185 | 3.2 | 12.9 | 0.00 | 0.00 | 0.00 | 81 | 1018.0 |
| 20260507143051 | 28 | 273 | 3.2 | 12.9 | 0.00 | 0.00 | 0.00 | 81 | 1018.1 |
| 20260507142541 | 27 | 246 | 3.2 | 14.5 | 0.00 | 0.00 | 0.00 | 82 | 1018.0 |
| 20260507142044 | 27 | 167 | 6.4 | 14.5 | 0.00 | 0.00 | 0.00 | 82 | 1017.9 |
| 20260507141610 | 28 | 183 | 4.8 | 14.5 | 0.00 | 0.00 | 0.00 | 82 | 1017.9 |
| 20260507141042 | 28 | 209 | 3.2 | 14.5 | 0.00 | 0.00 | 0.00 | 82 | 1017.8 |
| 20260507140542 | 28 | 194 | 4.8 | 14.5 | 0.00 | 0.00 | 0.00 | 82 | 1017.9 |
| 20260507140058 | 28 | 0 | 3.2 | 9.7 | 0.00 | 0.00 | 0.00 | 82 | 1017.8 |
| 20260507135546 | 27 | 180 | 3.2 | 11.3 | 0.00 | 0.00 | 0.00 | 83 | 1017.9 |
| 20260507135042 | 27 | 190 | 3.2 | 11.3 | 0.00 | 0.00 | 0.00 | 83 | 1017.8 |
| 20260507134551 | 27 | 216 | 1.6 | 9.7 | 0.00 | 0.00 | 0.00 | 85 | 1018.0 |
| 20260507134041 | 27 | 242 | 3.2 | 9.7 | 0.00 | 0.00 | 0.00 | 85 | 1018.0 |
| 20260507133542 | 27 | 209 | 1.6 | 6.4 | 0.00 | 0.00 | 0.00 | 85 | 1017.9 |
| 20260507133050 | 26 | 0 | 1.6 | 6.4 | 0.00 | 0.00 | 0.00 | 85 | 1017.8 |
| 20260507132541 | 26 | 0 | 0.0 | 9.7 | 0.00 | 0.00 | 0.00 | 85 | 1017.8 |
| 20260507132041 | 26 | 215 | 0.0 | 11.3 | 0.00 | 0.00 | 0.00 | 85 | 1017.7 |
| 20260507131550 | 27 | 241 | 1.6 | 11.3 | 0.00 | 0.00 | 0.00 | 84 | 1017.7 |
| 20260507131041 | 27 | 192 | 0.0 | 6.4 | 0.00 | 0.00 | 0.00 | 84 | 1017.6 |
| 20260507130541 | 27 | 0 | 0.0 | 4.8 | 0.00 | 0.00 | 0.00 | 85 | 1017.6 |
| 20260507130055 | 27 | 139 | 1.6 | 4.8 | 0.00 | 0.00 | 0.00 | 85 | 1017.6 |
| 20260507125541 | 27 | 267 | 0.0 | 4.8 | 0.00 | 0.00 | 0.00 | 85 | 1017.6 |
| 20260507125039 | 27 | 246 | 0.0 | 4.8 | 0.00 | 0.00 | 0.00 | 85 | 1017.6 |
| 20260507124547 | 27 | 127 | 0.0 | 4.8 | 0.00 | 0.00 | 0.00 | 86 | 1017.6 |
| 20260507124042 | 26 | 0 | 0.0 | 4.8 | 0.00 | 0.00 | 0.00 | 86 | 1017.6 |
| 20260507123542 | 26 | 121 | 1.6 | 4.8 | 0.00 | 0.00 | 0.00 | 86 | 1017.6 |
| 20260507123052 | 26 | 0 | 0.0 | 6.4 | 0.00 | 0.00 | 0.00 | 87 | 1017.5 |
| 20260507122541 | 26 | 124 | 1.6 | 6.4 | 0.00 | 0.00 | 0.00 | 87 | 1017.6 |
| 20260507122039 | 26 | 0 | 0.0 | 3.2 | 0.00 | 0.00 | 0.00 | 88 | 1017.6 |
| 20260507121550 | 25 | 0 | 0.0 | 4.8 | 0.00 | 0.00 | 0.00 | 90 | 1017.6 |
| 20260507121040 | 25 | 0 | 0.0 | 4.8 | 0.00 | 0.00 | 0.00 | 90 | 1017.6 |
| 20260507120539 | 25 | 107 | 0.0 | 4.8 | 0.00 | 0.00 | 0.00 | 91 | 1017.5 |
| 20260507120059 | 24 | 0 | 0.0 | 4.8 | 0.00 | 0.00 | 0.00 | 91 | 1017.6 |
| 20260507115541 | 24 | 167 | 0.0 | 4.8 | 0.00 | 0.00 | 0.00 | 92 | 1017.5 |
| 20260507115040 | 23 | 0 | 0.0 | 4.8 | 0.00 | 0.00 | 0.00 | 92 | 1017.5 |
| 20260507114553 | 23 | 0 | 0.0 | 1.6 | 0.00 | 0.00 | 0.00 | 92 | 1017.4 |
| 20260507114045 | 23 | 0 | 0.0 | 1.6 | 0.00 | 0.00 | 0.00 | 92 | 1017.4 |
| 20260507113541 | 23 | 0 | 0.0 | 0.0 | 0.00 | 0.00 | 0.00 | 92 | 1017.3 |
| 20260507113052 | 22 | 0 | 0.0 | 0.0 | 0.00 | 0.00 | 0.00 | 91 | 1017.3 |
| 20260507112541 | 22 | 0 | 0.0 | 0.0 | 0.00 | 0.00 | 0.00 | 91 | 1017.2 |
| 20260507112042 | 22 | 0 | 0.0 | 0.0 | 0.00 | 0.00 | 0.00 | 91 | 1017.1 |
| 20260507111600 | 22 | 0 | 0.0 | 0.0 | 0.00 | 0.00 | 0.00 | 91 | 1017.1 |
| 20260507111041 | 22 | 0 | 0.0 | 0.0 | 0.00 | 0.00 | 0.00 | 91 | 1017.0 |
| 20260507110539 | 21 | 0 | 0.0 | 0.0 | 0.00 | 0.00 | 0.00 | 91 | 1016.7 |
| 20260507110052 | 22 | 0 | 0.0 | 0.0 | 0.00 | 0.00 | 0.00 | 91 | 1016.7 |
| 20260507105541 | 22 | 0 | 0.0 | 0.0 | 0.00 | 0.00 | 0.00 | 91 | 1016.6 |
| 20260507105041 | 22 | 0 | 0.0 | 0.0 | 0.00 | 0.00 | 0.00 | 91 | 1016.5 |
| 20260507104549 | 21 | 0 | 0.0 | 0.0 | 0.00 | 0.00 | 0.00 | 90 | 1016.3 |
| 20260507104041 | 21 | 0 | 0.0 | 1.6 | 0.00 | 0.00 | 0.00 | 90 | 1016.4 |
| 20260507103542 | 21 | 0 | 0.0 | 1.6 | 0.00 | 0.00 | 0.00 | 90 | 1016.4 |
| 20260507103049 | 21 | 0 | 0.0 | 0.0 | 0.00 | 0.00 | 0.00 | 90 | 1016.3 |